GW4740 Weather Reports


time (UTC)temp
C
wind
direction
speed
KPH
gust
KPH
rain 1hr
cm
rain 24hr
cm
rain mn
cm
humidity
%
barometer
mb
20260506001525 22 315 12.9 22.5 0.00 0.00 0.00 34 1007.5
20260506000004 21 262 11.3 24.1 0.00 0.00 0.00 35 1007.6
20260505234509 23 269 12.9 33.8 0.00 0.00 0.00 28 1007.5
20260505233012 24 214 12.9 30.6 0.00 0.00 0.00 25 1006.9
20260505231521 24 214 17.7 33.8 0.00 0.00 0.00 24 1006.6
20260505230007 24 231 19.3 35.4 0.00 0.00 0.00 23 1006.7
20260505224509 24 284 11.3 30.6 0.00 0.00 0.00 24 1006.7
20260505223014 24 217 14.5 25.7 0.00 0.00 0.00 24 1007.0
20260505221518 24 209 12.9 33.8 0.00 0.00 0.00 26 1007.2
20260505220030 24 233 20.9 40.2 0.00 0.00 0.00 25 1007.3
20260505214505 25 236 24.1 38.6 0.00 0.00 0.00 24 1007.6
20260505213012 24 282 19.3 30.6 0.00 0.00 0.00 25 1007.7
20260505193023 22 220 3.2 12.9 0.00 0.00 0.00 33 1009.4
20260505191515 21 296 6.4 17.7 0.00 0.00 0.00 35 1009.5
20260505190009 20 155 8.0 19.3 0.00 0.00 0.00 36 1010.1
20260505184508 20 157 4.8 9.7 0.00 0.00 0.00 36 1010.2
20260505183006 20 106 3.2 8.0 0.00 0.00 0.00 35 1010.1
20260505181507 20 134 4.8 9.7 0.00 0.00 0.00 36 1010.2
20260505180017 20 125 3.2 14.5 0.00 0.00 0.00 35 1010.3
20260505174508 21 123 6.4 14.5 0.00 0.00 0.00 33 1010.5
20260505173010 21 117 8.0 14.5 0.00 0.00 0.00 33 1010.4
20260505171508 20 90 4.8 11.3 0.00 0.00 0.00 36 1010.7
20260505170010 20 130 8.0 14.5 0.00 0.00 0.00 35 1010.8
20260505164508 21 58 1.6 6.4 0.00 0.00 0.00 31 1010.9
20260505163010 21 332 6.4 12.9 0.00 0.00 0.00 30 1010.9
20260505151512 20 278 4.8 14.5 0.00 0.00 0.00 31 1010.9
20260505124516 17 289 8.0 12.9 0.00 0.00 0.00 38 1010.1
20260505123028 17 289 9.7 14.5 0.00 0.00 0.00 36 1009.8
20260505121505 17 302 6.4 11.3 0.00 0.00 0.00 34 1009.7
20260505120015 18 226 11.3 17.7 0.00 0.00 0.00 33 1009.2
20260505114512 18 274 3.2 9.7 0.00 0.00 0.00 33 1009.2
20260505113018 18 311 4.8 14.5 0.00 0.00 0.00 32 1009.1
20260505111521 18 288 8.0 16.1 0.00 0.00 0.00 33 1009.3
20260505101531 18 322 4.8 11.3 0.00 0.00 0.00 31 1009.2
20260505100050 19 285 3.2 8.0 0.00 0.00 0.00 30 1009.1
20260505094506 19 274 4.8 9.7 0.00 0.00 0.00 30 1009.2
20260505093016 18 274 8.0 16.1 0.00 0.00 0.00 31 1008.9
20260505091519 16 268 3.2 6.4 0.00 0.00 0.00 35 1009.0
20260505090022 16 323 1.6 4.8 0.00 0.00 0.00 36 1008.9
20260505084505 17 326 3.2 9.7 0.00 0.00 0.00 35 1008.8
20260505083012 17 345 1.6 3.2 0.00 0.00 0.00 34 1008.6
20260505081514 17 314 1.6 3.2 0.00 0.00 0.00 32 1008.8
20260505080022 17 314 1.6 6.4 0.00 0.00 0.00 31 1008.6
20260505074522 17 65 4.8 6.4 0.00 0.00 0.00 33 1008.4
20260505073027 17 132 0.0 3.2 0.00 0.00 0.00 33 1008.3
20260505071514 18 107 1.6 3.2 0.00 0.00 0.00 32 1008.2
20260505070020 19 107 1.6 6.4 0.00 0.00 0.00 29 1008.5
20260505064524 20 250 1.6 8.0 0.00 0.00 0.00 24 1008.3
20260505063026 20 274 4.8 9.7 0.00 0.00 0.00 24 1008.2
20260505061520 20 260 3.2 11.3 0.00 0.00 0.00 24 1008.2
20260505060016 19 243 3.2 11.3 0.00 0.00 0.00 26 1008.5
20260505054520 19 226 4.8 11.3 0.00 0.00 0.00 27 1008.5
20260505053036 20 186 4.8 12.9 0.00 0.00 0.00 26 1008.2
20260505051537 20 225 6.4 12.9 0.00 0.00 0.00 25 1008.0
20260505041526 20 203 3.2 8.0 0.00 0.00 0.00 26 1008.2
20260505040030 21 160 4.8 11.3 0.00 0.00 0.00 25 1008.0
20260505034520 21 198 3.2 9.7 0.00 0.00 0.00 25 1008.1
20260505033022 22 200 3.2 8.0 0.00 0.00 0.00 24 1008.0
20260505031531 22 191 6.4 11.3 0.00 0.00 0.00 23 1007.8
20260505030014 22 218 6.4 11.3 0.00 0.00 0.00 22 1007.8
20260505023022 23 195 8.0 12.9 0.00 0.00 0.00 19 1007.6
20260505021506 24 212 4.8 14.5 0.00 0.00 0.00 18 1007.4
20260505020010 24 244 4.8 11.3 0.00 0.00 0.00 18 1007.2
20260505014514 25 266 6.4 12.9 0.00 0.00 0.00 18 1007.0
20260505013023 25 229 4.8 16.1 0.00 0.00 0.00 18 1006.8